EW6413 Weather Reports


time (UTC)temp
C
wind
direction
speed
KPH
gust
KPH
rain 1hr
cm
rain 24hr
cm
rain mn
cm
humidity
%
barometer
mb
20260506201322 22 60 3.2 11.3 0.00 0.00 0.00 58 1018.2
20260506201045 22 0 4.8 11.3 0.00 0.00 0.00 58 1018.2
20260506200536 22 358 4.8 12.9 0.00 0.00 0.00 58 1018.3
20260506195818 22 318 4.8 12.9 0.00 0.00 0.00 59 1018.3
20260506195318 22 45 3.2 11.3 0.00 0.00 0.00 59 1018.3
20260506194818 22 272 3.2 8.0 0.00 0.00 0.00 57 1018.3
20260506194534 21 342 3.2 11.3 0.00 0.00 0.00 60 1018.4
20260506193818 21 98 4.8 14.5 0.00 0.00 0.00 57 1018.5
20260506193319 21 332 6.4 14.5 0.00 0.00 0.00 58 1018.5
20260506192818 22 26 4.8 14.5 0.00 0.00 0.00 55 1018.6
20260506192318 21 43 4.8 14.5 0.00 0.00 0.00 56 1018.6
20260506191818 21 100 4.8 12.9 0.00 0.00 0.00 58 1018.6
20260506191315 22 21 4.8 12.9 0.00 0.00 0.00 57 1018.7
20260506191036 22 34 3.2 12.9 0.00 0.00 0.00 58 1018.7
20260506190316 22 11 3.2 9.7 0.00 0.00 0.00 57 1018.9
20260506185813 22 137 3.2 9.7 0.00 0.00 0.00 60 1018.9
20260506185312 21 32 3.2 8.0 0.00 0.00 0.00 59 1018.9
20260506184813 21 334 3.2 9.7 0.00 0.00 0.00 61 1018.9
20260506184534 21 5 4.8 12.9 0.00 0.00 0.00 63 1018.9
20260506183814 20 27 4.8 12.9 0.00 0.00 0.00 65 1019.0
20260506183313 21 61 3.2 11.3 0.00 0.00 0.00 64 1018.9
20260506183033 21 8 3.2 9.7 0.00 0.00 0.00 64 1019.0
20260506182314 21 316 1.6 9.7 0.00 0.00 0.00 65 1019.0
20260506181810 20 322 1.6 9.7 0.00 0.00 0.00 65 1019.1
20260506181311 20 256 1.6 8.0 0.00 0.00 0.00 65 1019.0
20260506180810 19 0 3.2 8.0 0.00 0.00 0.00 67 1019.1
20260506180308 19 77 3.2 6.4 0.00 0.00 0.00 68 1019.0
20260506175808 19 70 3.2 11.3 0.00 0.00 0.00 68 1019.0
20260506175310 19 59 3.2 11.3 0.00 0.00 0.00 68 1019.0
20260506174808 19 31 3.2 8.0 0.00 0.00 0.00 68 1019.1
20260506174529 19 328 3.2 9.7 0.00 0.00 0.00 68 1019.1
20260506173808 19 35 1.6 9.7 0.00 0.00 0.00 68 1019.1
20260506173309 18 346 1.6 8.0 0.00 0.00 0.00 70 1019.1
20260506172808 18 348 3.2 8.0 0.00 0.00 0.00 71 1019.2
20260506172308 18 282 3.2 8.0 0.00 0.00 0.00 72 1019.2
20260506171805 18 287 1.6 6.4 0.00 0.00 0.00 72 1019.3
20260506170806 18 36 3.2 8.0 0.00 0.00 0.00 70 1019.3
20260506170306 18 43 3.2 8.0 0.00 0.00 0.00 71 1019.3
20260506165805 17 0 1.6 6.4 0.00 0.00 0.00 72 1019.3
20260506165306 18 283 1.6 6.4 0.00 0.00 0.00 72 1019.3
20260506164806 17 0 1.6 6.4 0.00 0.00 0.00 71 1019.3
20260506164306 17 82 1.6 4.8 0.00 0.00 0.00 72 1019.3
20260506163806 18 37 1.6 4.8 0.00 0.00 0.00 72 1019.4
20260506163305 17 347 1.6 6.4 0.00 0.00 0.00 73 1019.4
20260506162804 17 286 1.6 6.4 0.00 0.00 0.00 74 1019.4
20260506162307 17 284 1.6 4.8 0.00 0.00 0.00 73 1019.4
20260506161804 17 300 1.6 4.8 0.00 0.00 0.00 75 1019.4
20260506161304 17 282 1.6 4.8 0.00 0.00 0.00 72 1019.4
20260506160812 17 173 1.6 6.4 0.00 0.00 0.00 73 1019.3
20260506160303 16 6 1.6 8.0 0.00 0.00 0.00 75 1019.4
20260506155804 17 294 1.6 8.0 0.00 0.00 0.00 75 1019.4
20260506155306 17 292 1.6 4.8 0.00 0.00 0.00 74 1019.5
20260506154804 17 117 1.6 6.4 0.00 0.00 0.00 73 1019.4
20260506154533 16 0 1.6 8.0 0.00 0.00 0.00 75 1019.5
20260506153804 16 0 1.6 8.0 0.00 0.00 0.00 75 1019.5
20260506153526 16 55 1.6 6.4 0.00 0.00 0.00 77 1019.5
20260506152802 16 110 1.6 4.8 0.00 0.00 0.00 74 1019.5
20260506152305 16 60 1.6 4.8 0.00 0.00 0.00 76 1019.5
20260506151802 16 298 1.6 4.8 0.00 0.00 0.00 77 1019.5
20260506151302 16 89 1.6 3.2 0.00 0.00 0.00 77 1019.4
20260506150758 15 0 0.0 3.2 0.00 0.00 0.00 79 1019.5
20260506150304 15 4 0.0 3.2 0.00 0.00 0.00 79 1019.5
20260506150021 15 0 0.0 3.2 0.00 0.00 0.00 80 1019.5
20260506145259 15 334 0.0 3.2 0.00 0.00 0.00 81 1019.5
20260506144759 14 0 0.0 3.2 0.00 0.00 0.00 82 1019.4
20260506144258 13 212 0.0 3.2 0.00 0.00 0.00 84 1019.5
20260506144019 13 0 0.0 3.2 0.00 0.00 0.00 85 1019.4
20260506143520 13 320 0.0 3.2 0.00 0.00 0.00 85 1019.4
20260506142754 12 105 0.0 3.2 0.00 0.00 0.00 88 1019.4
20260506142255 12 0 0.0 1.6 0.00 0.00 0.00 92 1019.4
20260506141753 12 59 0.0 1.6 0.00 0.00 0.00 94 1019.4
20260506141239 11 0 0.0 1.6 0.00 0.00 0.00 95 1019.3
20260506140739 11 0 0.0 1.6 0.00 0.00 0.00 95 1019.3
20260506140239 11 0 0.0 1.6 0.00 0.00 0.00 95 1019.3
20260506135738 11 0 0.0 1.6 0.00 0.00 0.00 95 1019.2
20260506135239 11 87 0.0 1.6 0.00 0.00 0.00 95 1019.1
20260506135002 11 194 0.0 1.6 0.00 0.00 0.00 95 1019.1
20260506134240 11 152 0.0 3.2 0.00 0.00 0.00 95 1019.1
20260506134003 11 246 0.0 3.2 0.00 0.00 0.00 95 1019.1
20260506133239 11 0 0.0 1.6 0.00 0.00 0.00 95 1019.1
20260506132726 11 87 0.0 1.6 0.00 0.00 0.00 95 1019.1
20260506132225 11 0 0.0 1.6 0.00 0.00 0.00 95 1019.0
20260506131712 11 0 0.0 1.6 0.00 0.00 0.00 94 1019.0
20260506131211 11 0 0.0 1.6 0.00 0.00 0.00 94 1018.9
20260506130711 11 0 0.0 1.6 0.00 0.00 0.00 94 1018.9
20260506130211 11 0 0.0 1.6 0.00 0.00 0.00 94 1018.7
20260506125709 11 249 0.0 1.6 0.00 0.00 0.00 94 1018.7
20260506125210 11 0 0.0 1.6 0.00 0.00 0.00 94 1018.7
20260506124710 11 0 0.0 1.6 0.00 0.00 0.00 94 1018.6
20260506124210 11 0 0.0 1.6 0.00 0.00 0.00 94 1018.6
20260506123709 11 0 0.0 1.6 0.00 0.00 0.00 94 1018.6
20260506123427 11 0 0.0 1.6 0.00 0.00 0.00 94 1018.6
20260506122709 11 0 0.0 1.6 0.00 0.00 0.00 94 1018.6
20260506122209 11 0 0.0 0.0 0.00 0.00 0.00 94 1018.6
20260506121655 11 0 0.0 1.6 0.00 0.00 0.00 94 1018.5
20260506121155 11 0 0.0 1.6 0.00 0.00 0.00 94 1018.5
20260506120656 11 26 0.0 1.6 0.00 0.00 0.00 94 1018.5
20260506120155 11 256 0.0 1.6 0.00 0.00 0.00 94 1018.5
20260506115656 11 0 0.0 0.0 0.00 0.00 0.00 94 1018.5
20260506115156 11 0 0.0 1.6 0.00 0.00 0.00 94 1018.5
20260506114656 11 0 0.0 1.6 0.00 0.00 0.00 94 1018.5
20260506114142 11 10 0.0 1.6 0.00 0.00 0.00 94 1018.5
20260506113627 11 314 0.0 1.6 0.00 0.00 0.00 94 1018.4
20260506113127 11 15 0.0 0.0 0.00 0.00 0.00 94 1018.3
20260506112627 11 0 0.0 0.0 0.00 0.00 0.00 94 1018.2
20260506112337 11 322 0.0 1.6 0.00 0.00 0.00 94 1018.2
20260506111613 11 65 0.0 1.6 0.00 0.00 0.00 94 1018.2
20260506111114 11 239 0.0 1.6 0.00 0.00 0.00 94 1018.1
20260506110613 11 125 0.0 1.6 0.00 0.00 0.00 95 1018.1
20260506110112 11 272 0.0 1.6 0.00 0.00 0.00 94 1018.1
20260506105612 11 0 0.0 1.6 0.00 0.00 0.00 95 1018.1
20260506105058 11 33 0.0 1.6 0.00 0.00 0.00 95 1018.1
20260506104559 11 0 0.0 1.6 0.00 0.00 0.00 95 1018.1
20260506104058 11 0 0.0 1.6 0.00 0.00 0.00 95 1018.0
20260506103557 11 0 0.0 1.6 0.00 0.00 0.00 96 1018.1
20260506103057 11 0 0.0 1.6 0.00 0.00 0.00 96 1018.1
20260506102542 11 12 0.0 1.6 0.00 0.00 0.00 96 1018.1
20260506102043 11 341 0.0 1.6 0.00 0.00 0.00 96 1018.0
20260506101542 11 0 0.0 1.6 0.00 0.00 0.00 96 1018.0
20260506101042 11 0 0.0 1.6 0.00 0.00 0.00 96 1018.0
20260506100543 11 0 0.0 1.6 0.00 0.00 0.00 96 1018.0
20260506100043 11 300 0.0 1.6 0.00 0.00 0.00 97 1018.0
20260506095542 10 215 0.0 1.6 0.00 0.00 0.00 97 1018.0
20260506095043 10 0 0.0 1.6 0.00 0.00 0.00 97 1018.1
20260506094543 10 0 0.0 0.0 0.00 0.00 0.00 97 1018.1
20260506094044 10 0 0.0 1.6 0.00 0.00 0.00 97 1018.1
20260506093545 10 0 0.0 1.6 0.00 0.00 0.00 97 1018.0
20260506093248 10 174 0.0 1.6 0.00 0.00 0.00 97 1018.0
20260506092529 10 230 0.0 1.6 0.00 0.00 0.00 97 1018.0
20260506092029 10 0 0.0 3.2 0.00 0.00 0.00 97 1018.1
20260506091528 10 0 0.0 3.2 0.00 0.00 0.00 97 1018.1
20260506091029 10 318 0.0 3.2 0.00 0.00 0.00 97 1018.1
20260506090529 10 0 0.0 6.4 0.00 0.00 0.00 97 1018.2
20260506090029 10 40 0.0 6.4 0.00 0.03 0.00 97 1018.1
20260506085529 10 232 0.0 3.2 0.00 0.03 0.00 97 1018.0
20260506085253 9 0 0.0 3.2 0.00 0.03 0.00 97 1018.0
20260506084529 9 198 0.0 1.6 0.00 0.05 0.00 97 1018.0
20260506084029 9 0 0.0 1.6 0.00 0.05 0.00 97 1018.0
20260506083516 9 231 0.0 1.6 0.00 0.05 0.00 97 1018.0
20260506083016 9 0 0.0 1.6 0.00 0.05 0.00 97 1018.0
20260506082516 10 176 0.0 1.6 0.00 0.05 0.00 97 1018.0
20260506082016 10 0 0.0 3.2 0.00 0.05 0.00 97 1018.0
20260506081513 10 226 0.0 3.2 0.00 0.05 0.00 97 1018.1
20260506081014 10 0 0.0 1.6 0.00 0.08 0.00 97 1018.1
20260506080734 10 280 0.0 3.2 0.00 0.13 0.00 97 1018.1
20260506073501 10 243 0.0 6.4 0.00 0.28 0.00 97 1017.9
20260506073001 10 216 0.0 1.6 0.00 0.30 0.00 96 1017.9
20260506072450 10 0 0.0 1.6 0.00 0.33 0.00 96 1017.8
20260506071949 10 0 0.0 4.8 0.00 0.36 0.00 96 1017.8
20260506071449 10 224 0.0 4.8 0.00 0.36 0.00 96 1017.7
20260506070950 10 0 0.0 6.4 0.00 0.38 0.00 96 1017.6
20260506070450 10 237 0.0 6.4 0.00 0.38 0.00 96 1017.5
20260506062445 10 351 1.6 6.4 0.00 0.51 0.43 95 1017.3
20260506061942 10 209 1.6 6.4 0.00 0.51 0.43 95 1017.2
20260506061442 10 313 1.6 6.4 0.00 0.51 0.43 95 1017.2
20260506060942 10 240 1.6 6.4 0.00 0.53 0.43 94 1017.2
20260506060442 10 0 0.0 6.4 0.00 0.53 0.43 94 1017.2
20260506051154 11 0 0.0 3.2 0.00 0.64 0.43 91 1016.9
20260506050702 11 233 0.0 1.6 0.00 0.64 0.43 91 1016.9
20260506044427 11 0 0.0 1.6 0.00 0.71 0.43 89 1016.6
20260506043928 12 0 0.0 1.6 0.00 0.71 0.43 89 1016.5
20260506043428 12 228 0.0 4.8 0.00 0.71 0.43 88 1016.5
20260506043153 12 0 0.0 4.8 0.00 0.74 0.43 88 1016.4
20260506042428 12 0 0.0 3.2 0.00 0.74 0.43 87 1016.3
20260506041928 12 0 0.0 3.2 0.00 0.76 0.43 87 1016.3
20260506041428 12 0 0.0 3.2 0.00 0.76 0.43 87 1016.2
20260506040926 12 271 0.0 3.2 0.00 0.79 0.43 86 1016.2
20260506040422 12 0 0.0 3.2 0.00 0.79 0.43 85 1016.2
20260506035923 13 0 1.6 3.2 0.00 0.79 0.43 85 1016.1
20260506035423 13 290 1.6 3.2 0.00 0.79 0.43 84 1016.0
20260506034922 13 280 1.6 3.2 0.00 0.79 0.43 84 1016.0
20260506034423 13 339 1.6 3.2 0.00 0.79 0.43 84 1015.9
20260506034144 13 293 1.6 3.2 0.00 0.79 0.43 84 1015.8
20260506033423 13 0 1.6 3.2 0.00 0.79 0.43 84 1015.8
20260506032920 13 277 1.6 4.8 0.00 0.79 0.43 84 1015.7
20260506032421 13 316 3.2 4.8 0.00 0.79 0.43 84 1015.6
20260506031921 13 305 1.6 4.8 0.00 0.79 0.43 84 1015.5
20260506031421 13 223 1.6 4.8 0.00 0.79 0.43 84 1015.4
20260506030921 13 293 1.6 3.2 0.00 0.79 0.43 83 1015.3
20260506030421 13 283 1.6 4.8 0.00 0.79 0.43 83 1015.2
20260506025920 13 274 1.6 4.8 0.00 0.79 0.43 82 1015.2
20260506025421 13 284 1.6 4.8 0.00 0.79 0.43 82 1015.2
20260506024922 13 50 1.6 3.2 0.00 0.79 0.43 82 1015.2
20260506024430 13 0 1.6 4.8 0.00 0.79 0.43 81 1015.1
20260506023920 14 253 1.6 4.8 0.00 0.79 0.43 81 1015.2
20260506023420 14 322 1.6 4.8 0.00 0.79 0.43 81 1015.1
20260506022919 14 0 3.2 4.8 0.00 0.79 0.43 81 1015.1
20260506022419 14 273 3.2 4.8 0.00 0.79 0.43 81 1015.0
20260506022142 14 265 3.2 4.8 0.00 0.79 0.43 81 1015.0
20260506021418 14 290 1.6 4.8 0.00 0.79 0.43 81 1015.0
20260506020918 14 0 1.6 4.8 0.00 0.79 0.43 81 1014.9
20260506020419 14 268 1.6 3.2 0.00 0.79 0.43 80 1014.8
20260506015919 14 256 1.6 3.2 0.00 0.79 0.43 81 1014.8
20260506015419 14 289 1.6 4.8 0.00 0.79 0.43 81 1014.8
20260506014919 14 262 1.6 4.8 0.00 0.79 0.43 80 1014.7
20260506014419 14 263 1.6 4.8 0.00 0.79 0.43 81 1014.6
20260506013416 14 256 3.2 6.4 0.00 0.79 0.43 81 1014.5
20260506012917 15 277 3.2 8.0 0.00 0.79 0.43 79 1014.5
20260506012416 15 274 3.2 9.7 0.00 0.79 0.43 80 1014.5
20260506011916 15 263 3.2 9.7 0.00 0.79 0.43 79 1014.6
20260506011417 15 241 3.2 9.7 0.00 0.79 0.43 80 1014.6
20260506010917 15 277 3.2 8.0 0.00 0.79 0.43 80 1014.7
20260506010417 15 251 3.2 9.7 0.00 0.79 0.43 80 1014.7
20260506005917 15 270 3.2 9.7 0.00 0.79 0.43 81 1014.6
20260506005417 15 272 4.8 11.3 0.00 0.79 0.43 82 1014.6
20260506004917 15 290 4.8 11.3 0.00 0.79 0.43 81 1014.5
20260506004417 15 301 4.8 14.5 0.00 0.79 0.43 82 1014.5
20260506003917 15 282 4.8 14.5 0.00 0.79 0.43 81 1014.4
20260506003414 15 277 3.2 6.4 0.00 0.79 0.43 81 1014.4
20260506003136 15 21 3.2 11.3 0.00 0.79 0.43 81 1014.4
20260506002411 15 260 4.8 11.3 0.00 0.79 0.43 81 1014.4
20260506001912 15 285 4.8 9.7 0.00 0.79 0.43 80 1014.4
20260506001631 15 155 3.2 9.7 0.00 0.79 0.43 80 1014.3
20260506000912 15 289 3.2 9.7 0.00 0.79 0.43 80 1014.3
20260506000412 15 0 3.2 8.0 0.00 0.79 0.43 79 1014.3
20260505235912 15 269 3.2 8.0 0.00 0.79 0.43 81 1014.3
20260505235412 15 286 3.2 6.4 0.00 0.79 0.43 80 1014.3
20260505234910 15 318 3.2 6.4 0.00 0.79 0.43 80 1014.3
20260505234410 16 308 3.2 4.8 0.00 0.79 0.43 81 1014.4
20260505233909 16 286 3.2 6.4 0.00 0.79 0.43 81 1014.3
20260505233409 16 282 3.2 9.7 0.00 0.79 0.43 81 1014.3
20260505232910 16 271 3.2 9.7 0.00 0.79 0.43 80 1014.3
20260505232410 16 284 3.2 6.4 0.00 0.79 0.43 80 1014.3
20260505231911 16 282 3.2 6.4 0.00 0.79 0.43 80 1014.3
20260505231410 16 288 3.2 6.4 0.00 0.79 0.43 81 1014.4
20260505230910 16 283 3.2 4.8 0.00 0.79 0.43 81 1014.4
20260505230410 16 280 3.2 4.8 0.00 0.79 0.43 80 1014.4
20260505225910 16 301 3.2 6.4 0.00 0.79 0.43 79 1014.4
20260505225410 16 296 3.2 6.4 0.00 0.79 0.43 80 1014.4
20260505224910 15 9 3.2 4.8 0.00 0.79 0.43 79 1014.4
20260505224411 15 3 3.2 6.4 0.00 0.79 0.43 80 1014.4
20260505223907 15 310 1.6 6.4 0.00 0.79 0.43 79 1014.4
20260505223408 15 23 3.2 6.4 0.00 0.79 0.43 81 1014.4
20260505222908 15 280 3.2 6.4 0.00 0.79 0.43 81 1014.4
20260505222407 15 280 1.6 4.8 0.00 0.79 0.43 80 1014.4
20260505221907 16 290 1.6 4.8 0.00 0.79 0.43 79 1014.4
20260505221407 16 0 1.6 4.8 0.00 0.79 0.43 80 1014.4
20260505220907 16 103 3.2 4.8 0.00 0.79 0.43 81 1014.4
20260505220628 16 346 3.2 6.4 0.00 0.79 0.43 79 1014.5
20260505215409 16 290 3.2 4.8 0.00 0.79 0.43 79 1014.5
20260505214908 16 298 3.2 4.8 0.00 0.79 0.43 79 1014.5
20260505214406 16 296 3.2 6.4 0.00 0.79 0.43 80 1014.5
20260505213906 16 52 3.2 6.4 0.00 0.79 0.43 77 1014.5
20260505213403 16 280 3.2 9.7 0.00 0.79 0.43 78 1014.5
20260505212903 16 317 3.2 9.7 0.00 0.79 0.43 78 1014.5
20260505212404 16 267 3.2 8.0 0.00 0.79 0.43 78 1014.6
20260505211903 16 292 3.2 8.0 0.00 0.79 0.43 77 1014.6
20260505211403 16 286 3.2 8.0 0.00 0.79 0.43 81 1014.6
20260505210904 16 290 1.6 4.8 0.00 0.79 0.43 80 1014.6
20260505205903 16 292 3.2 11.3 0.00 0.79 0.43 79 1014.6
20260505205403 16 265 1.6 6.4 0.00 0.79 0.43 78 1014.6
20260505204903 16 254 1.6 6.4 0.00 0.79 0.43 79 1014.7
20260505204400 15 239 1.6 6.4 0.00 0.79 0.43 79 1014.7
20260505203900 15 0 1.6 4.8 0.00 0.79 0.43 81 1014.8
20260505203358 15 280 1.6 4.8 0.00 0.79 0.43 81 1014.7
20260505202857 15 308 1.6 3.2 0.00 0.79 0.43 84 1014.8
20260505202358 15 283 1.6 4.8 0.00 0.79 0.43 83 1014.8
20260505201858 14 122 3.2 4.8 0.00 0.79 0.43 84 1014.9